Find Starlink 1230

NORAD ID: 45189 Int'l Des: 2020-012 Owner: SPXS Country: US Constellation: starlink operational
LEOCIRCULAR

現在のビュー

3D地球を読み込み中...

About Starlink 1230

Starlink 1230 (NORAD 45189) is a starlink constellation satellite (v1.0) launched Feb 17, 2020 by SPXS of US. It operates in LEO, CIRCULAR orbit with a mass of 260.00 kg.

次回通過

Passes for default location (London). Set your location on the main map for personalized predictions.

高度履歴

Loading altitude history...

軌道要素

1 45189U 20012M 26262.55633125 .00045972 00000-0 10127-2 0 9990
2 45189 53.1501 211.5328 0002518 90.3323 269.7972 15.43508188361951
Epoch: Sep 19, 2026 • Age: 19 hours

現在のステータス

高度 440.4 km
遠地点 / 近地点 N/A
速度 7.66 km/s
衛星直下点 53.25°N, 176.21°E
打ち上げ日 Feb 17, 2020
運用期間 6.5 years
タイプ internet

技術仕様

分類 Payload
質量 260.00 kg
乾燥質量 248.00 kg
長さ 0.20 m
スパン 9.00 m
形状 ? Box + pan
製造者 SPXS
バスタイプ Starlink
フェーズステータス In Orbit
所有者/国 SPXS/US

Most Searched